Time,TemperatureF,DewpointF,PressureIn,WindDirection,WindDirectionDegrees,WindSpeedMPH,WindSpeedGustMPH,Humidity,HourlyPrecipIn,Conditions,Clouds,dailyrainin,SoftwareType,DateUTC
2013-10-19 00:00:00,41.0,39.1,30.07,SSW,202,3.0,10.0,93,0.00,,,0.00,Weather View 32 v70,2013-10-19 05:00:00,
2013-10-19 00:05:00,41.0,39.1,30.06,SSW,202,4.0,10.0,93,0.00,,,0.00,Weather View 32 v70,2013-10-19 05:05:00,
2013-10-19 00:10:00,41.0,39.1,30.06,SSW,202,5.0,10.0,93,0.00,,,0.00,Weather View 32 v70,2013-10-19 05:10:00,
2013-10-19 00:15:00,41.0,38.6,30.06,WSW,247,4.0,10.0,91,0.00,,,0.00,Weather View 32 v70,2013-10-19 05:15:00,
2013-10-19 00:25:00,41.0,38.3,30.06,SW,225,3.0,10.0,90,0.00,,,0.00,Weather View 32 v70,2013-10-19 05:25:00,
2013-10-19 00:35:00,41.0,37.7,30.06,SSW,202,3.0,10.0,88,0.00,,,0.00,Weather View 32 v70,2013-10-19 05:35:00,
2013-10-19 00:40:00,41.0,37.1,30.06,South,180,6.0,10.0,86,0.00,,,0.00,Weather View 32 v70,2013-10-19 05:40:00,
2013-10-19 00:45:00,41.0,36.5,30.06,SW,225,5.0,10.0,84,0.00,,,0.00,Weather View 32 v70,2013-10-19 05:45:00,
2013-10-19 00:50:00,41.0,36.5,30.06,SSW,202,3.0,10.0,84,0.00,,,0.00,Weather View 32 v70,2013-10-19 05:50:00,
2013-10-19 01:00:00,41.0,35.3,30.06,SW,225,8.0,10.0,80,0.01,,,0.01,Weather View 32 v70,2013-10-19 06:00:00,
2013-10-19 01:05:00,41.0,35.0,30.05,WNW,292,3.0,10.0,79,0.01,,,0.01,Weather View 32 v70,2013-10-19 06:05:00,
2013-10-19 01:15:00,41.0,33.3,30.05,WSW,247,9.0,9.0,74,0.01,,,0.01,Weather View 32 v70,2013-10-19 06:15:00,
2013-10-19 01:20:00,41.0,33.3,30.05,SW,225,4.0,9.0,74,0.01,,,0.01,Weather View 32 v70,2013-10-19 06:20:00,
2013-10-19 01:25:00,41.0,32.0,30.05,SSW,202,5.0,9.0,70,0.01,,,0.01,Weather View 32 v70,2013-10-19 06:25:00,
2013-10-19 01:35:00,41.0,31.6,30.05,SSW,202,3.0,9.0,69,0.01,,,0.01,Weather View 32 v70,2013-10-19 06:35:00,
2013-10-19 01:40:00,41.0,32.0,30.05,SW,225,3.0,9.0,70,0.01,,,0.01,Weather View 32 v70,2013-10-19 06:40:00,
2013-10-19 01:45:00,41.0,31.2,30.04,SW,225,4.0,9.0,68,0.01,,,0.01,Weather View 32 v70,2013-10-19 06:45:00,
2013-10-19 01:55:00,41.0,30.5,30.04,SSW,202,3.0,9.0,66,0.00,,,0.01,Weather View 32 v70,2013-10-19 06:55:00,
2013-10-19 02:00:00,41.0,31.2,30.04,South,180,4.0,9.0,68,0.00,,,0.01,Weather View 32 v70,2013-10-19 07:00:00,
2013-10-19 02:05:00,41.0,30.9,30.04,SW,225,4.0,9.0,67,0.00,,,0.01,Weather View 32 v70,2013-10-19 07:05:00,
2013-10-19 02:15:00,41.0,31.2,30.04,SW,225,3.0,9.0,68,0.00,,,0.01,Weather View 32 v70,2013-10-19 07:15:00,
2013-10-19 02:20:00,41.0,31.6,30.04,SW,225,4.0,7.0,69,0.00,,,0.01,Weather View 32 v70,2013-10-19 07:20:00,
2013-10-19 02:25:00,41.0,31.2,30.04,SSW,202,3.0,7.0,68,0.00,,,0.01,Weather View 32 v70,2013-10-19 07:25:00,
2013-10-19 02:30:00,41.0,31.2,30.04,SW,225,4.0,7.0,68,0.00,,,0.01,Weather View 32 v70,2013-10-19 07:30:00,
2013-10-19 02:35:00,41.0,30.9,30.03,SSW,202,3.0,7.0,67,0.00,,,0.01,Weather View 32 v70,2013-10-19 07:35:00,
2013-10-19 02:40:00,41.0,31.6,30.03,WSW,247,3.0,7.0,69,0.00,,,0.01,Weather View 32 v70,2013-10-19 07:40:00,
2013-10-19 02:45:00,41.0,31.2,30.04,SW,225,4.0,7.0,68,0.00,,,0.01,Weather View 32 v70,2013-10-19 07:45:00,
2013-10-19 02:55:00,41.0,32.3,30.03,SSW,202,4.0,8.0,71,0.00,,,0.01,Weather View 32 v70,2013-10-19 07:55:00,
2013-10-19 03:00:00,41.0,34.0,30.03,SSW,202,6.0,8.0,76,0.00,,,0.01,Weather View 32 v70,2013-10-19 08:00:00,
2013-10-19 03:05:00,41.0,34.7,30.03,SSW,202,4.0,8.0,78,0.00,,,0.01,Weather View 32 v70,2013-10-19 08:05:00,
2013-10-19 03:10:00,41.0,36.5,30.03,SSW,202,5.0,10.0,84,0.00,,,0.01,Weather View 32 v70,2013-10-19 08:10:00,
2013-10-19 03:20:00,41.0,38.0,30.02,SSW,202,4.0,10.0,89,0.00,,,0.01,Weather View 32 v70,2013-10-19 08:20:00,
2013-10-19 03:25:00,41.0,38.3,30.03,SSW,202,6.0,10.0,90,0.00,,,0.01,Weather View 32 v70,2013-10-19 08:25:00,
2013-10-19 03:35:00,41.0,40.2,30.03,SSW,202,10.0,11.0,97,0.00,,,0.01,Weather View 32 v70,2013-10-19 08:35:00,
2013-10-19 03:40:00,41.0,40.2,30.03,SW,225,3.0,11.0,97,0.00,,,0.01,Weather View 32 v70,2013-10-19 08:40:00,
2013-10-19 03:50:00,41.0,39.9,30.02,SW,225,6.0,11.0,96,0.00,,,0.01,Weather View 32 v70,2013-10-19 08:50:00,
2013-10-19 04:00:00,40.0,38.7,30.03,SW,225,8.0,11.0,95,0.00,,,0.01,Weather View 32 v70,2013-10-19 09:00:00,
2013-10-19 04:05:00,40.0,38.7,30.03,SSW,202,6.0,11.0,95,0.00,,,0.01,Weather View 32 v70,2013-10-19 09:05:00,
2013-10-19 04:15:00,40.0,38.4,30.02,SSW,202,5.0,11.0,94,0.00,,,0.01,Weather View 32 v70,2013-10-19 09:15:00,
2013-10-19 04:25:00,40.0,37.9,30.02,SSW,202,6.0,11.0,92,0.00,,,0.01,Weather View 32 v70,2013-10-19 09:25:00,
2013-10-19 04:30:00,40.0,37.9,30.02,SSW,202,5.0,11.0,92,0.00,,,0.01,Weather View 32 v70,2013-10-19 09:30:00,
2013-10-19 04:35:00,40.0,37.6,30.02,SSW,202,6.0,11.0,91,0.00,,,0.01,Weather View 32 v70,2013-10-19 09:35:00,
2013-10-19 04:40:00,40.0,37.3,30.02,SW,225,5.0,10.0,90,0.00,,,0.01,Weather View 32 v70,2013-10-19 09:40:00,
2013-10-19 04:50:00,39.0,36.0,30.03,South,180,5.0,10.0,89,0.00,,,0.01,Weather View 32 v70,2013-10-19 09:50:00,
2013-10-19 04:55:00,39.0,35.7,30.04,South,180,5.0,10.0,88,0.00,,,0.01,Weather View 32 v70,2013-10-19 09:55:00,
2013-10-19 05:00:00,39.0,35.7,30.04,SW,225,5.0,10.0,88,0.00,,,0.01,Weather View 32 v70,2013-10-19 10:00:00,
2013-10-19 05:05:00,39.0,35.2,30.03,SW,225,6.0,10.0,86,0.00,,,0.01,Weather View 32 v70,2013-10-19 10:05:00,
2013-10-19 05:15:00,39.0,34.3,30.03,SW,225,5.0,10.0,83,0.00,,,0.01,Weather View 32 v70,2013-10-19 10:15:00,
2013-10-19 05:25:00,39.0,34.3,30.03,South,180,4.0,10.0,83,0.00,,,0.01,Weather View 32 v70,2013-10-19 10:25:00,
2013-10-19 05:35:00,38.0,33.0,30.03,South,180,7.0,10.0,82,0.00,,,0.01,Weather View 32 v70,2013-10-19 10:35:00,
2013-10-19 05:45:00,38.0,32.4,30.04,SW,225,5.0,10.0,80,0.00,,,0.01,Weather View 32 v70,2013-10-19 10:45:00,
2013-10-19 05:50:00,38.0,32.4,30.04,SW,225,6.0,10.0,80,0.00,,,0.01,Weather View 32 v70,2013-10-19 10:50:00,
2013-10-19 05:55:00,38.0,31.7,30.04,South,180,5.0,10.0,78,0.00,,,0.01,Weather View 32 v70,2013-10-19 10:55:00,
2013-10-19 06:00:00,37.0,31.7,30.04,SSW,202,4.0,10.0,81,0.00,,,0.01,Weather View 32 v70,2013-10-19 11:00:00,
2013-10-19 06:06:00,37.0,30.8,30.04,South,180,5.0,10.0,78,0.00,,,0.01,Weather View 32 v70,2013-10-19 11:06:00,
2013-10-19 06:15:00,37.0,29.8,30.04,SSW,202,8.0,9.0,75,0.00,,,0.01,Weather View 32 v70,2013-10-19 11:15:00,
2013-10-19 06:25:00,37.0,30.1,30.04,SSW,202,3.0,10.0,76,0.00,,,0.01,Weather View 32 v70,2013-10-19 11:25:00,
2013-10-19 06:30:00,37.0,29.5,30.04,SSW,202,9.0,10.0,74,0.00,,,0.01,Weather View 32 v70,2013-10-19 11:30:00,
2013-10-19 06:35:00,37.0,29.1,30.04,SSW,202,3.0,10.0,73,0.00,,,0.01,Weather View 32 v70,2013-10-19 11:35:00,
2013-10-19 06:45:00,37.0,28.8,30.04,SSW,202,7.0,10.0,72,0.00,,,0.01,Weather View 32 v70,2013-10-19 11:45:00,
2013-10-19 06:50:00,37.0,28.8,30.04,SW,225,6.0,10.0,72,0.00,,,0.01,Weather View 32 v70,2013-10-19 11:50:00,
2013-10-19 06:55:00,37.0,28.5,30.04,SSW,202,2.0,10.0,71,0.00,,,0.01,Weather View 32 v70,2013-10-19 11:55:00,
2013-10-19 07:00:00,36.0,27.8,30.04,SSW,202,5.0,10.0,72,0.00,,,0.01,Weather View 32 v70,2013-10-19 12:00:00,
2013-10-19 07:06:00,36.0,27.8,30.04,South,180,6.0,10.0,72,0.00,,,0.01,Weather View 32 v70,2013-10-19 12:06:00,
2013-10-19 07:15:00,36.0,27.2,30.04,South,180,6.0,10.0,70,0.00,,,0.01,Weather View 32 v70,2013-10-19 12:15:00,
2013-10-19 07:20:00,36.0,27.5,30.04,SSW,202,4.0,10.0,71,0.00,,,0.01,Weather View 32 v70,2013-10-19 12:20:00,
2013-10-19 07:25:00,36.0,26.8,30.04,SSW,202,7.0,10.0,69,0.00,,,0.01,Weather View 32 v70,2013-10-19 12:25:00,
2013-10-19 07:30:00,36.0,26.8,30.04,SSW,202,6.0,10.0,69,0.00,,,0.01,Weather View 32 v70,2013-10-19 12:30:00,
2013-10-19 07:40:00,36.0,26.8,30.04,SW,225,6.0,10.0,69,0.00,,,0.01,Weather View 32 v70,2013-10-19 12:40:00,
2013-10-19 07:45:00,36.0,26.8,30.04,SW,225,3.0,10.0,69,0.00,,,0.01,Weather View 32 v70,2013-10-19 12:45:00,
2013-10-19 07:50:00,36.0,26.8,30.04,SW,225,4.0,10.0,69,0.00,,,0.01,Weather View 32 v70,2013-10-19 12:50:00,
2013-10-19 08:00:00,36.0,27.2,30.03,SW,225,7.0,10.0,70,0.00,,,0.01,Weather View 32 v70,2013-10-19 13:00:00,
2013-10-19 08:05:00,37.0,28.5,30.01,SW,225,7.0,12.0,71,0.00,,,0.01,Weather View 32 v70,2013-10-19 13:05:00,
2013-10-19 08:10:00,37.0,28.5,30.01,SW,225,7.0,12.0,71,0.00,,,0.01,Weather View 32 v70,2013-10-19 13:10:00,
2013-10-19 08:15:00,37.0,31.7,30.00,SSW,202,10.0,14.0,81,0.00,,,0.01,Weather View 32 v70,2013-10-19 13:15:00,
2013-10-19 08:25:00,38.0,35.6,29.99,SSW,202,6.0,14.0,91,0.00,,,0.01,Weather View 32 v70,2013-10-19 13:25:00,
2013-10-19 08:30:00,38.0,38.0,29.99,SW,225,11.0,14.0,100,0.00,,,0.01,Weather View 32 v70,2013-10-19 13:30:00,
2013-10-19 08:35:00,38.0,38.0,29.97,SSW,202,8.0,14.0,100,0.00,,,0.01,Weather View 32 v70,2013-10-19 13:35:00,
2013-10-19 08:45:00,39.0,39.0,29.96,SSW,202,7.0,14.0,100,0.00,,,0.01,Weather View 32 v70,2013-10-19 13:45:00,
2013-10-19 08:50:00,39.0,39.0,29.96,WSW,247,11.0,15.0,100,0.00,,,0.01,Weather View 32 v70,2013-10-19 13:50:00,
2013-10-19 08:55:00,39.0,39.0,29.91,SSW,202,7.0,15.0,100,0.00,,,0.01,Weather View 32 v70,2013-10-19 13:55:00,
2013-10-19 09:05:00,40.0,39.5,29.87,SSW,202,5.0,15.0,98,0.00,,,0.01,Weather View 32 v70,2013-10-19 14:05:00,
2013-10-19 09:10:00,40.0,39.0,29.87,SSW,202,5.0,15.0,96,0.00,,,0.01,Weather View 32 v70,2013-10-19 14:10:00,
2013-10-19 09:15:00,40.0,39.0,29.85,SSW,202,10.0,15.0,96,0.00,,,0.01,Weather View 32 v70,2013-10-19 14:15:00,
2013-10-19 09:25:00,40.0,39.2,29.82,SSW,202,10.0,15.0,97,0.00,,,0.01,Weather View 32 v70,2013-10-19 14:25:00,
2013-10-19 09:30:00,40.0,38.7,29.82,SSW,202,8.0,15.0,95,0.00,,,0.01,Weather View 32 v70,2013-10-19 14:30:00,
2013-10-19 09:35:00,40.0,39.0,29.83,SSW,202,7.0,15.0,96,0.00,,,0.01,Weather View 32 v70,2013-10-19 14:35:00,
2013-10-19 09:40:00,40.0,38.4,29.83,SW,225,4.0,15.0,94,0.00,,,0.01,Weather View 32 v70,2013-10-19 14:40:00,
2013-10-19 09:50:00,40.0,38.7,29.80,SW,225,7.0,15.0,95,0.00,,,0.01,Weather View 32 v70,2013-10-19 14:50:00,
2013-10-19 09:55:00,40.0,39.0,29.77,SW,225,6.0,15.0,96,0.00,,,0.01,Weather View 32 v70,2013-10-19 14:55:00,
2013-10-19 10:00:00,40.0,39.0,29.77,SSW,202,5.0,15.0,96,0.00,,,0.01,Weather View 32 v70,2013-10-19 15:00:00,
2013-10-19 10:05:00,41.0,40.2,29.77,SW,225,6.0,15.0,97,0.00,,,0.01,Weather View 32 v70,2013-10-19 15:05:00,
2013-10-19 10:10:00,41.0,38.9,29.77,SW,225,6.0,15.0,92,0.00,,,0.01,Weather View 32 v70,2013-10-19 15:10:00,
2013-10-19 10:20:00,42.0,38.7,29.70,SW,225,7.0,15.0,88,0.00,,,0.01,Weather View 32 v70,2013-10-19 15:20:00,
2013-10-19 10:25:00,43.0,40.0,29.14,WNW,292,8.0,15.0,89,0.00,,,0.01,Weather View 32 v70,2013-10-19 15:25:00,
2013-10-19 10:30:00,43.0,38.5,29.14,SW,225,10.0,15.0,84,0.00,,,0.01,Weather View 32 v70,2013-10-19 15:30:00,
2013-10-19 10:40:00,44.0,38.9,29.08,SSW,202,7.0,18.0,82,0.00,,,0.01,Weather View 32 v70,2013-10-19 15:40:00,
2013-10-19 10:50:00,44.0,38.9,29.09,WSW,247,9.0,18.0,82,0.00,,,0.01,Weather View 32 v70,2013-10-19 15:50:00,
2013-10-19 10:55:00,45.0,38.9,29.11,SW,225,10.0,18.0,79,0.00,,,0.01,Weather View 32 v70,2013-10-19 15:55:00,
2013-10-19 11:00:00,45.0,39.2,29.11,SW,225,7.0,18.0,80,0.00,,,0.01,Weather View 32 v70,2013-10-19 16:00:00,
2013-10-19 11:05:00,46.0,39.2,29.13,SW,225,7.0,18.0,77,0.00,,,0.01,Weather View 32 v70,2013-10-19 16:05:00,
2013-10-19 11:10:00,46.0,39.2,29.13,SW,225,10.0,18.0,77,0.00,,,0.01,Weather View 32 v70,2013-10-19 16:10:00,
2013-10-19 11:20:00,47.0,40.2,29.17,SW,225,7.0,18.0,77,0.00,,,0.01,Weather View 32 v70,2013-10-19 16:20:00,
2013-10-19 11:25:00,47.0,39.8,29.19,SSW,202,8.0,18.0,76,0.00,,,0.01,Weather View 32 v70,2013-10-19 16:25:00,
2013-10-19 11:30:00,47.0,39.1,29.19,SSW,202,10.0,18.0,74,0.00,,,0.01,Weather View 32 v70,2013-10-19 16:30:00,
2013-10-19 11:35:00,47.0,39.5,29.22,SSW,202,7.0,18.0,75,0.00,,,0.01,Weather View 32 v70,2013-10-19 16:35:00,
2013-10-19 11:45:00,49.0,40.4,29.27,SW,225,10.0,16.0,72,0.00,,,0.01,Weather View 32 v70,2013-10-19 16:45:00,
2013-10-19 11:50:00,49.0,40.4,29.27,WSW,247,10.0,16.0,72,0.00,,,0.01,Weather View 32 v70,2013-10-19 16:50:00,
2013-10-19 11:55:00,49.0,40.0,29.31,SSW,202,12.0,19.0,71,0.00,,,0.01,Weather View 32 v70,2013-10-19 16:55:00,
2013-10-19 12:05:00,49.0,39.6,29.31,SSW,202,8.0,19.0,70,0.00,,,0.01,Weather View 32 v70,2013-10-19 17:05:00,
2013-10-19 12:10:00,49.0,39.6,29.31,SSW,202,10.0,19.0,70,0.00,,,0.01,Weather View 32 v70,2013-10-19 17:10:00,
2013-10-19 12:15:00,50.0,39.8,29.30,SSE,157,10.0,19.0,68,0.00,,,0.01,Weather View 32 v70,2013-10-19 17:15:00,
2013-10-19 12:25:00,51.0,40.4,29.29,South,180,12.0,19.0,67,0.00,,,0.01,Weather View 32 v70,2013-10-19 17:25:00,
2013-10-19 12:30:00,50.0,39.1,29.29,SW,225,6.0,19.0,66,0.00,,,0.01,Weather View 32 v70,2013-10-19 17:30:00,
2013-10-19 12:35:00,50.0,39.1,29.47,SSW,202,13.0,19.0,66,0.00,,,0.01,Weather View 32 v70,2013-10-19 17:35:00,
2013-10-19 12:40:00,50.0,38.3,29.47,SW,225,4.0,20.0,64,0.00,,,0.01,Weather View 32 v70,2013-10-19 17:40:00,
2013-10-19 12:45:00,51.0,38.4,29.29,SW,225,11.0,20.0,62,0.00,,,0.01,Weather View 32 v70,2013-10-19 17:45:00,
2013-10-19 12:55:00,52.0,39.4,29.29,SSW,202,9.0,20.0,62,0.00,,,0.01,Weather View 32 v70,2013-10-19 17:55:00,
2013-10-19 13:00:00,51.0,38.4,29.29,SSW,202,12.0,20.0,62,0.00,,,0.01,Weather View 32 v70,2013-10-19 18:00:00,
2013-10-19 13:05:00,52.0,39.4,29.30,SSW,202,11.0,20.0,62,0.00,,,0.01,Weather View 32 v70,2013-10-19 18:05:00,
2013-10-19 13:10:00,52.0,38.1,29.30,WSW,247,9.0,20.0,59,0.00,,,0.01,Weather View 32 v70,2013-10-19 18:10:00,
2013-10-19 13:20:00,53.0,38.6,29.28,South,180,9.0,20.0,58,0.00,,,0.01,Weather View 32 v70,2013-10-19 18:20:00,
2013-10-19 13:25:00,52.0,37.2,29.31,WSW,247,8.0,25.0,57,0.00,,,0.01,Weather View 32 v70,2013-10-19 18:25:00,
2013-10-19 13:35:00,53.0,37.7,29.28,SSW,202,9.0,25.0,56,0.00,,,0.01,Weather View 32 v70,2013-10-19 18:35:00,
2013-10-19 13:40:00,53.0,38.6,29.28,SW,225,8.0,25.0,58,0.00,,,0.01,Weather View 32 v70,2013-10-19 18:40:00,
2013-10-19 13:45:00,53.0,38.6,29.28,SSW,202,17.0,25.0,58,0.00,,,0.01,Weather View 32 v70,2013-10-19 18:45:00,
2013-10-19 13:55:00,53.0,37.7,29.29,South,180,7.0,25.0,56,0.00,,,0.01,Weather View 32 v70,2013-10-19 18:55:00,
2013-10-19 14:00:00,53.0,37.2,29.29,SSW,202,9.0,25.0,55,0.00,,,0.01,Weather View 32 v70,2013-10-19 19:00:00,
2013-10-19 14:05:00,53.0,36.8,29.48,SW,225,4.0,25.0,54,0.00,,,0.01,Weather View 32 v70,2013-10-19 19:05:00,
2013-10-19 14:10:00,53.0,37.7,29.48,SW,225,10.0,25.0,56,0.00,,,0.01,Weather View 32 v70,2013-10-19 19:10:00,
2013-10-19 14:20:00,54.0,37.2,29.29,SSW,202,15.0,25.0,53,0.00,,,0.01,Weather View 32 v70,2013-10-19 19:20:00,
2013-10-19 14:30:00,54.0,37.7,29.30,SW,225,14.0,20.0,54,0.00,,,0.01,Weather View 32 v70,2013-10-19 19:30:00,
2013-10-19 14:35:00,54.0,36.7,29.31,South,180,11.0,20.0,52,0.00,,,0.01,Weather View 32 v70,2013-10-19 19:35:00,
2013-10-19 14:40:00,54.0,37.2,29.31,SW,225,13.0,22.0,53,0.00,,,0.01,Weather View 32 v70,2013-10-19 19:40:00,
2013-10-19 14:50:00,52.0,37.2,29.49,SW,225,9.0,22.0,57,0.00,,,0.01,Weather View 32 v70,2013-10-19 19:50:00,
2013-10-19 15:00:00,52.0,36.8,29.54,SW,225,7.0,22.0,56,0.00,,,0.01,Weather View 32 v70,2013-10-19 20:00:00,
2013-10-19 15:10:00,54.0,37.7,29.33,SSW,202,13.0,22.0,54,0.00,,,0.01,Weather View 32 v70,2013-10-19 20:10:00,
2013-10-19 15:15:00,54.0,37.2,29.34,SW,225,8.0,22.0,53,0.00,,,0.01,Weather View 32 v70,2013-10-19 20:15:00,
2013-10-19 15:20:00,55.0,38.6,29.34,SSW,202,7.0,22.0,54,0.00,,,0.01,Weather View 32 v70,2013-10-19 20:20:00,
2013-10-19 15:30:00,55.0,37.2,29.36,South,180,8.0,22.0,51,0.00,,,0.01,Weather View 32 v70,2013-10-19 20:30:00,
2013-10-19 15:35:00,54.0,36.2,29.37,SW,225,10.0,24.0,51,0.00,,,0.01,Weather View 32 v70,2013-10-19 20:35:00,
2013-10-19 15:40:00,54.0,36.2,29.37,SW,225,10.0,24.0,51,0.00,,,0.01,Weather View 32 v70,2013-10-19 20:40:00,
2013-10-19 15:50:00,55.0,37.2,29.39,SW,225,8.0,24.0,51,0.00,,,0.01,Weather View 32 v70,2013-10-19 20:50:00,
2013-10-19 16:00:00,54.0,35.7,29.41,SSW,202,15.0,24.0,50,0.00,,,0.01,Weather View 32 v70,2013-10-19 21:00:00,
2013-10-19 16:05:00,55.0,37.2,29.42,SW,225,8.0,24.0,51,0.00,,,0.01,Weather View 32 v70,2013-10-19 21:05:00,
2013-10-19 16:12:00,55.0,36.2,29.42,South,180,9.0,24.0,49,0.00,,,0.01,Weather View 32 v70,2013-10-19 21:12:00,
2013-10-19 16:20:00,55.0,35.6,29.43,South,180,13.0,24.0,48,0.00,,,0.01,Weather View 32 v70,2013-10-19 21:20:00,
2013-10-19 16:25:00,55.0,35.6,29.45,WSW,247,10.0,24.0,48,0.00,,,0.01,Weather View 32 v70,2013-10-19 21:25:00,
2013-10-19 16:35:00,55.0,36.2,29.48,WSW,247,12.0,22.0,49,0.00,,,0.01,Weather View 32 v70,2013-10-19 21:35:00,
2013-10-19 16:40:00,55.0,36.2,29.48,West,270,9.0,22.0,49,0.00,,,0.01,Weather View 32 v70,2013-10-19 21:40:00,
2013-10-19 16:45:00,54.0,35.2,29.48,WSW,247,12.0,21.0,49,0.00,,,0.01,Weather View 32 v70,2013-10-19 21:45:00,
2013-10-19 16:55:00,54.0,36.2,29.57,SSW,202,7.0,21.0,51,0.00,,,0.01,Weather View 32 v70,2013-10-19 21:55:00,
2013-10-19 17:00:00,53.0,35.3,29.57,SSW,202,16.0,20.0,51,0.00,,,0.01,Weather View 32 v70,2013-10-19 22:00:00,
2013-10-19 17:05:00,53.0,35.8,29.62,SSW,202,10.0,20.0,52,0.00,,,0.01,Weather View 32 v70,2013-10-19 22:05:00,
2013-10-19 17:12:00,54.0,36.2,29.62,WSW,247,11.0,20.0,51,0.00,,,0.01,Weather View 32 v70,2013-10-19 22:12:00,
2013-10-19 17:20:00,54.0,35.7,29.58,SW,225,8.0,20.0,50,0.00,,,0.01,Weather View 32 v70,2013-10-19 22:20:00,
2013-10-19 17:30:00,54.0,36.2,29.61,SW,225,7.0,20.0,51,0.00,,,0.01,Weather View 32 v70,2013-10-19 22:30:00,
2013-10-19 17:35:00,53.0,35.3,29.65,SSW,202,9.0,20.0,51,0.00,,,0.01,Weather View 32 v70,2013-10-19 22:35:00,
2013-10-19 17:45:00,53.0,36.3,29.68,SW,225,7.0,20.0,53,0.00,,,0.01,Weather View 32 v70,2013-10-19 22:45:00,
2013-10-19 17:50:00,53.0,36.3,29.68,SSW,202,10.0,20.0,53,0.00,,,0.01,Weather View 32 v70,2013-10-19 22:50:00,
2013-10-19 17:55:00,53.0,36.8,29.70,South,180,8.0,20.0,54,0.00,,,0.01,Weather View 32 v70,2013-10-19 22:55:00,
2013-10-19 18:05:00,52.0,35.4,29.71,SSW,202,7.0,19.0,53,0.00,,,0.01,Weather View 32 v70,2013-10-19 23:05:00,
2013-10-19 18:10:00,52.0,35.8,29.71,SW,225,8.0,19.0,54,0.00,,,0.01,Weather View 32 v70,2013-10-19 23:10:00,
2013-10-19 18:15:00,52.0,35.8,29.73,SW,225,6.0,19.0,54,0.00,,,0.01,Weather View 32 v70,2013-10-19 23:15:00,
2013-10-19 18:25:00,52.0,36.8,29.74,SW,225,8.0,19.0,56,0.00,,,0.01,Weather View 32 v70,2013-10-19 23:25:00,
2013-10-19 18:30:00,51.0,35.8,29.74,South,180,4.0,15.0,56,0.00,,,0.01,Weather View 32 v70,2013-10-19 23:30:00,
2013-10-19 18:35:00,52.0,37.2,29.76,SSW,202,6.0,15.0,57,0.00,,,0.01,Weather View 32 v70,2013-10-19 23:35:00,
2013-10-19 18:45:00,52.0,37.2,29.77,SSW,202,8.0,14.0,57,0.00,,,0.01,Weather View 32 v70,2013-10-19 23:45:00,
2013-10-19 18:50:00,51.0,35.8,29.77,SW,225,7.0,14.0,56,0.00,,,0.01,Weather View 32 v70,2013-10-19 23:50:00,
2013-10-19 18:55:00,51.0,36.3,29.79,SSW,202,6.0,14.0,57,0.00,,,0.01,Weather View 32 v70,2013-10-19 23:55:00,
2013-10-19 19:00:00,51.0,35.8,29.79,SSW,202,6.0,14.0,56,0.00,,,0.01,Weather View 32 v70,2013-10-20 00:00:00,
2013-10-19 19:10:00,51.0,36.3,29.79,SW,225,6.0,14.0,57,0.00,,,0.01,Weather View 32 v70,2013-10-20 00:10:00,
2013-10-19 19:15:00,51.0,36.3,29.80,SSW,202,5.0,13.0,57,0.00,,,0.01,Weather View 32 v70,2013-10-20 00:15:00,
2013-10-19 19:20:00,51.0,36.3,29.80,South,180,8.0,11.0,57,0.00,,,0.01,Weather View 32 v70,2013-10-20 00:20:00,
2013-10-19 19:25:00,51.0,36.3,29.81,SW,225,5.0,11.0,57,0.00,,,0.01,Weather View 32 v70,2013-10-20 00:25:00,
2013-10-19 19:30:00,51.0,36.3,29.81,SW,225,9.0,11.0,57,0.00,,,0.01,Weather View 32 v70,2013-10-20 00:30:00,
2013-10-19 19:40:00,51.0,36.3,29.81,SSW,202,10.0,13.0,57,0.00,,,0.01,Weather View 32 v70,2013-10-20 00:40:00,
2013-10-19 19:45:00,51.0,36.3,29.82,SSW,202,6.0,16.0,57,0.00,,,0.01,Weather View 32 v70,2013-10-20 00:45:00,
2013-10-19 19:50:00,51.0,36.7,29.82,SW,225,8.0,16.0,58,0.00,,,0.01,Weather View 32 v70,2013-10-20 00:50:00,
2013-10-19 19:55:00,51.0,36.7,29.82,SSW,202,7.0,16.0,58,0.00,,,0.01,Weather View 32 v70,2013-10-20 00:55:00,
2013-10-19 20:05:00,51.0,36.7,29.83,SSW,202,5.0,16.0,58,0.00,,,0.01,Weather View 32 v70,2013-10-20 01:05:00,
2013-10-19 20:10:00,51.0,37.2,29.83,SSW,202,7.0,16.0,59,0.00,,,0.01,Weather View 32 v70,2013-10-20 01:10:00,
2013-10-19 20:15:00,51.0,37.2,29.83,SW,225,5.0,16.0,59,0.00,,,0.01,Weather View 32 v70,2013-10-20 01:15:00,
2013-10-19 20:20:00,51.0,37.6,29.83,SW,225,5.0,16.0,60,0.00,,,0.01,Weather View 32 v70,2013-10-20 01:20:00,
2013-10-19 20:30:00,51.0,37.6,29.83,South,180,7.0,16.0,60,0.00,,,0.01,Weather View 32 v70,2013-10-20 01:30:00,
2013-10-19 20:35:00,50.0,36.6,29.84,South,180,5.0,16.0,60,0.00,,,0.01,Weather View 32 v70,2013-10-20 01:35:00,
2013-10-19 20:40:00,50.0,37.1,29.84,SSW,202,6.0,16.0,61,0.00,,,0.01,Weather View 32 v70,2013-10-20 01:40:00,
2013-10-19 20:50:00,50.0,37.5,29.85,SSW,202,6.0,11.0,62,0.00,,,0.01,Weather View 32 v70,2013-10-20 01:50:00,
2013-10-19 20:55:00,50.0,37.5,29.85,SSW,202,6.0,11.0,62,0.00,,,0.01,Weather View 32 v70,2013-10-20 01:55:00,
2013-10-19 21:00:00,50.0,37.9,29.85,SSW,202,6.0,11.0,63,0.00,,,0.01,Weather View 32 v70,2013-10-20 02:00:00,
2013-10-19 21:05:00,50.0,37.9,29.85,South,180,8.0,11.0,63,0.00,,,0.01,Weather View 32 v70,2013-10-20 02:05:00,
2013-10-19 21:14:00,49.0,37.3,29.85,SSW,202,5.0,11.0,64,0.00,,,0.01,Weather View 32 v70,2013-10-20 02:14:00,
2013-10-19 21:20:00,49.0,36.9,29.86,SW,225,4.0,11.0,63,0.00,,,0.01,Weather View 32 v70,2013-10-20 02:20:00,
2013-10-19 21:25:00,50.0,37.9,29.87,South,180,6.0,11.0,63,0.00,,,0.01,Weather View 32 v70,2013-10-20 02:25:00,
2013-10-19 21:35:00,50.0,37.9,29.87,SSW,202,6.0,11.0,63,0.00,,,0.01,Weather View 32 v70,2013-10-20 02:35:00,
2013-10-19 21:40:00,50.0,37.9,29.87,WSW,247,7.0,13.0,63,0.00,,,0.01,Weather View 32 v70,2013-10-20 02:40:00,
2013-10-19 21:45:00,50.0,37.5,29.88,SSW,202,8.0,14.0,62,0.00,,,0.01,Weather View 32 v70,2013-10-20 02:45:00,
2013-10-19 21:50:00,50.0,37.5,29.88,SSW,202,8.0,14.0,62,0.00,,,0.01,Weather View 32 v70,2013-10-20 02:50:00,
2013-10-19 22:00:00,50.0,37.5,29.89,SSW,202,11.0,16.0,62,0.00,,,0.01,Weather View 32 v70,2013-10-20 03:00:00,
2013-10-19 22:05:00,51.0,38.0,29.89,SW,225,12.0,16.0,61,0.00,,,0.01,Weather View 32 v70,2013-10-20 03:05:00,
2013-10-19 22:10:00,51.0,38.4,29.89,South,180,9.0,16.0,62,0.00,,,0.01,Weather View 32 v70,2013-10-20 03:10:00,
2013-10-19 22:15:00,51.0,38.0,29.90,SSW,202,10.0,16.0,61,0.00,,,0.01,Weather View 32 v70,2013-10-20 03:15:00,
2013-10-19 22:25:00,51.0,38.0,29.91,SSW,202,14.0,16.0,61,0.00,,,0.01,Weather View 32 v70,2013-10-20 03:25:00,
2013-10-19 22:30:00,51.0,38.0,29.91,SSW,202,11.0,16.0,61,0.00,,,0.01,Weather View 32 v70,2013-10-20 03:30:00,
2013-10-19 22:40:00,51.0,38.4,29.91,SSW,202,7.0,16.0,62,0.00,,,0.01,Weather View 32 v70,2013-10-20 03:40:00,
2013-10-19 22:45:00,51.0,38.8,29.92,SW,225,7.0,16.0,63,0.00,,,0.01,Weather View 32 v70,2013-10-20 03:45:00,
2013-10-19 22:55:00,51.0,38.8,29.93,SSW,202,6.0,16.0,63,0.00,,,0.01,Weather View 32 v70,2013-10-20 03:55:00,
2013-10-19 23:00:00,50.0,38.3,29.93,SSW,202,6.0,16.0,64,0.00,,,0.01,Weather View 32 v70,2013-10-20 04:00:00,
2013-10-19 23:05:00,50.0,38.7,29.93,SSW,202,10.0,16.0,65,0.00,,,0.01,Weather View 32 v70,2013-10-20 04:05:00,
2013-10-19 23:10:00,50.0,39.1,29.93,South,180,10.0,15.0,66,0.00,,,0.01,Weather View 32 v70,2013-10-20 04:10:00,
2013-10-19 23:15:00,49.0,38.1,29.94,SSW,202,8.0,15.0,66,0.00,,,0.01,Weather View 32 v70,2013-10-20 04:15:00,
2013-10-19 23:20:00,49.0,38.5,29.94,SW,225,8.0,15.0,67,0.00,,,0.01,Weather View 32 v70,2013-10-20 04:20:00,
2013-10-19 23:25:00,49.0,38.9,29.95,SSW,202,10.0,15.0,68,0.00,,,0.01,Weather View 32 v70,2013-10-20 04:25:00,
2013-10-19 23:30:00,49.0,38.9,29.95,South,180,8.0,15.0,68,0.00,,,0.01,Weather View 32 v70,2013-10-20 04:30:00,
2013-10-19 23:40:00,48.0,38.3,29.94,SSW,202,6.0,15.0,69,0.00,,,0.01,Weather View 32 v70,2013-10-20 04:40:00,
2013-10-19 23:45:00,48.0,38.7,29.95,SSW,202,7.0,18.0,70,0.00,,,0.01,Weather View 32 v70,2013-10-20 04:45:00,
2013-10-19 23:50:00,48.0,39.4,29.95,SSW,202,8.0,18.0,72,0.00,,,0.01,Weather View 32 v70,2013-10-20 04:50:00,
2013-10-19 23:55:00,48.0,39.4,29.96,SSW,202,7.0,18.0,72,0.00,,,0.01,Weather View 32 v70,2013-10-20 04:55:00,